{"data":{"norad_id":45608,"intl_designator":"2020-031A","name":"COSMOS 2546","alt_names":[],"object_type":"PAYLOAD","status":"ACTIVE","operator":null,"country":"CIS","launch_date":"2020-05-22","launch_site_code":"PLMSC","launch_vehicle":null,"mission":null,"orbit_class":"UNKNOWN","rcs_meters":null,"size_class":null,"mass_kg":null,"dimensions":null,"purposes":[],"wikipedia_slug":null,"has_3d_model":false,"image_url":null,"decayed_at":null,"tle_current":{"epoch":"2026-05-24T02:13:34.730112Z","epoch_age_seconds":147416,"freshness":"FRESH","line1":"1 45608U 20031A   26144.09276308 -.00000089  00000+0  00000+0 0  9997","line2":"2 45608  63.1556  69.7306 7074720 266.1751  17.7627  2.00612849 43983","mean_motion":2.00612849,"eccentricity":0.707472,"inclination_deg":63.1556,"raan_deg":69.7306,"arg_perigee_deg":266.1751,"mean_anomaly_deg":17.7627,"bstar":0,"rev_number":4398,"period_min":717.80048345757,"perigee_km":1390.2368832099,"apogee_km":38965.491271865,"semimajor_km":26556.001077538,"source":"CELESTRAK","updated_at":"2026-05-25T13:37:56.211903Z"}}}